Location: Hilton Head Island
(32.2163°N, 80.7526°W)
Time: 23:12:23
(UTC-04:00)

Tiros 1 despin weight - Pass Details

Date: 25 February 2026
Orbit: 556 x 593 km, 48.2° (Epoch: 13 March)

Event Time Altitude Azimuth Distance (km) Brightness Sun altitude
Rises 17:12:47 0° 319° (NW) 2,735 ? 12.4°
Reaches altitude 10° 17:15:34 10° 338° (NNW) 1,836 ? 11.9°
Maximum altitude 17:18:37 19° 25° (NNE) 1,343 ? 11.3°
Drops below altitude 10° 17:21:40 10° 72° (ENE) 1,832 ? 10.6°
Sets 17:24:26 0° 90° (E) 2,727 ? 10.1°
